Theta_e
280 280 281 282 282 282 278 282 284 284 278 286 288 286 286 287 288 288 287 286 287 287 287 287 287 286 286 287 287 288 289 289 289 289 289 289 289 290 291 291 292 293 293 294
279 276 278 278 280 281 281 281 278 279 279 289 289 288 285 287 288 289 290 288 287 287 287 286 285 286 286 285 287 288 287 289 289 288 288 288 288 288 289 289 290 291 291 292
284 274 275 280 278 280 282 283 283 279 287 288 286 287 289 290 289 290 292 292 291 290 287 287 287 287 286 287 287 287 288 288 288 287 287 287 287 288 287 288 288 288 289 290
283 278 282 290 282 284 283 284 285 285 286 287 288 288 289 291 291 291 290 291 292 292 289 288 288 286 287 287 287 287 288 288 288 288 287 286 286 287 287 287 287 287 288 289
281 281 285 288 280 281 281 288 286 285 288 288 287 287 289 291 291 292 291 292 293 294 291 289 287 287 287 286 286 286 286 287 286 286 286 287 287 287 286 287 287 286 286 287
276 280 281 289 284 284 284 285 290 287 289 287 286 284 290 291 291 290 291 291 292 292 289 288 287 287 286 285 285 285 286 286 286 285 285 286 285 285 285 285 284 285 284 286
277 280 283 287 283 284 285 291 287 288 289 286 285 290 290 291 291 292 292 291 291 289 288 288 286 285 285 285 284 285 284 284 284 284 283 284 284 284 284 285 284 284 284 284
276 277 278 284 282 284 291 289 287 286 287 287 289 288 289 291 291 291 290 290 290 289 288 287 284 284 284 284 285 283 283 282 282 282 283 283 282 282 282 283 283 282 283 284
281 282 287 286 289 288 287 289 289 287 287 289 288 289 290 291 291 291 291 290 289 288 285 284 282 283 283 284 282 280 280 280 280 280 281 282 282 282 282 282 283 281 282 284
283 288 286 286 289 288 288 289 290 289 288 288 288 289 291 291 291 291 289 287 285 284 284 284 282 281 283 282 281 279 280 280 280 279 280 280 282 282 283 283 283 282 281 282
282 285 285 287 287 290 291 289 289 289 289 288 289 290 291 290 289 290 288 285 285 286 286 286 285 283 283 281 280 281 281 281 281 282 280 281 280 282 282 283 284 284 284 283
286 289 293 296 292 291 290 289 290 289 288 287 288 289 289 289 290 289 287 285 284 285 285 286 285 285 283 281 280 281 282 282 283 282 282 282 282 282 282 283 282 283 283 282
292 291 290 289 287 287 289 290 290 288 290 289 287 288 288 288 288 287 286 285 285 286 286 286 285 285 283 281 280 280 283 284 283 282 283 282 281 282 282 283 283 284 284 284
288 287 288 288 292 290 288 288 286 287 288 288 288 286 286 286 284 285 286 287 286 285 285 285 283 284 285 283 281 281 282 284 284 284 284 283 283 283 283 283 282 282 284 285
288 288 292 288 286 285 284 282 284 285 286 286 286 286 284 285 285 286 286 283 283 282 283 282 282 284 284 282 281 282 282 283 283 284 284 284 284 283 283 283 283 284 281 283
285 287 286 285 288 286 284 283 283 286 286 287 285 284 286 286 285 284 284 283 283 285 283 282 283 286 284 282 282 282 282 283 283 284 284 283 283 283 282 282 282 283 283 283
282 285 283 283 283 285 285 286 286 286 284 284 285 283 280 282 281 281 282 283 283 284 285 285 285 283 283 282 283 284 283 283 281 283 283 283 283 282 282 282 282 283 283 284
272 275 275 274 276 279 283 286 286 286 286 287 286 285 285 280 285 287 286 285 282 281 281 283 283 282 281 282 282 284 283 283 282 282 283 283 282 283 283 283 282 282 283 284
269 269 270 271 271 272 277 281 281 284 286 285 283 283 285 285 285 286 284 282 281 282 286 281 279 279 280 280 281 283 283 283 282 282 282 281 281 282 282 283 283 283 283 283
267 268 268 268 269 270 269 271 271 274 279 278 282 284 284 285 282 281 279 281 283 282 275 277 276 278 278 277 279 281 282 282 282 281 281 281 281 281 282 281 282 283 283 283
263 265 266 267 267 269 268 268 268 269 270 272 272 277 277 277 275 275 277 279 276 271 272 272 274 277 276 275 276 280 281 281 280 281 280 280 280 280 281 282 282 282 282 282
261 262 262 263 264 265 266 266 267 267 269 269 270 271 272 275 273 272 271 272 272 270 271 273 273 272 273 273 277 279 279 279 280 280 279 280 280 281 281 281 281 282 282 282
260 261 262 261 262 263 264 265 264 265 265 266 266 267 268 269 270 272 275 270 270 270 271 271 270 272 273 276 278 278 279 278 279 279 279 279 280 280 280 281 281 281 282 282
259 260 260 261 261 262 262 263 264 265 265 266 265 264 266 269 270 269 269 268 268 268 269 271 271 272 271 276 279 279 279 279 279 280 280 280 281 281 281 281 282 283 283 283
261 262 261 261 262 262 261 262 263 264 264 266 265 265 265 266 266 267 267 267 268 268 268 268 270 271 273 274 274 274 273 273 274 276 276 277 278 279 279 279 280 280 281 282
260 261 262 262 262 263 263 264 264 264 264 264 266 265 265 265 266 266 266 265 266 266 266 266 266 267 267 267 267 267 267 267 268 268 269 269 270 270 270 271 271 272 273 273
259 259 260 262 262 262 263 264 264 264 265 265 265 265 265 266 266 266 265 265 265 265 264 264 265 264 265 265 265 265 265 265 265 266 266 266 266 267 267 267 268 268 269 269
Wind_Speed
3 3 2 3 5 13 13 7 8 1 8 10 5 8 6 5 3 5 7 4 4 3 4 4 4 4 3 1 2 5 5 5 6 6 6 6 7 7 6 6 5 5 5 6
5 1 4 6 12 12 15 7 13 12 23 15 10 6 6 7 5 6 7 5 4 4 5 5 5 5 5 3 2 2 3 4 5 4 4 4 5 6 6 5 5 5 6 6
5 2 4 8 12 18 10 9 12 12 13 1 3 6 5 6 8 8 7 5 5 6 6 5 7 7 7 6 4 2 1 1 3 4 4 5 4 4 5 5 5 6 6 7
3 2 5 5 2 7 16 8 19 11 10 6 4 2 5 7 7 8 7 7 7 5 7 7 7 5 6 7 7 5 2 1 3 2 1 2 2 4 5 3 4 4 6 6
3 4 8 6 6 9 11 9 28 26 19 9 4 5 11 14 14 13 7 7 8 6 7 8 9 8 7 6 7 7 7 5 3 1 2 1 2 3 3 4 5 6 4 5
3 4 7 3 3 4 3 7 5 22 15 13 8 4 4 8 6 7 6 5 7 7 6 8 9 10 8 7 7 7 7 6 5 3 1 1 2 2 2 2 3 3 4 5
3 5 9 8 6 6 2 5 2 11 11 15 10 6 3 6 4 4 5 7 6 8 8 8 9 8 7 7 8 6 5 6 6 5 5 3 2 1 2 1 4 4 4 3
4 4 12 9 7 9 1 1 0 5 10 14 8 3 3 5 6 6 7 8 8 8 7 7 8 8 7 9 4 5 5 5 4 5 4 4 4 2 1 1 0 1 3 3
13 12 1 14 3 7 1 3 2 3 5 8 10 7 8 7 7 6 6 6 5 7 7 6 7 8 9 7 7 7 6 5 4 3 4 4 5 4 2 3 3 3 3 2
3 10 15 10 12 8 4 8 2 4 5 9 8 8 10 7 7 7 6 6 4 6 7 9 9 10 11 5 6 8 8 8 7 7 6 5 4 4 5 6 4 3 3 4
6 10 4 9 13 15 10 12 8 6 6 11 10 8 10 7 7 6 6 4 5 9 9 10 9 11 8 7 7 7 7 7 8 7 8 7 7 7 7 6 6 5 5 4
7 10 7 9 4 5 13 14 16 13 9 8 11 12 7 8 6 6 7 5 5 9 7 7 7 9 9 9 9 8 8 7 7 7 7 6 6 6 13 11 12 11 7 6
8 6 7 2 4 3 8 12 11 13 16 10 10 11 7 5 5 6 5 6 8 11 10 5 7 9 8 10 11 12 11 9 7 8 7 7 7 7 6 7 14 13 14 15
7 4 5 6 10 6 9 1 2 7 8 11 9 5 5 7 3 7 10 10 7 6 8 7 6 10 6 10 12 12 12 12 8 8 8 8 8 8 6 6 7 7 16 16
11 12 13 1 3 0 1 1 4 9 8 9 6 8 8 9 11 13 9 4 3 5 7 6 7 11 7 8 10 11 9 8 9 8 7 8 7 7 7 7 7 6 4 10
10 4 3 7 14 2 3 3 5 9 5 4 7 10 14 10 4 5 5 5 6 10 9 8 9 7 6 8 9 8 8 10 8 7 6 7 7 7 7 8 8 7 7 8
4 3 5 3 3 5 6 7 8 6 3 5 8 1 4 4 3 6 8 7 9 8 6 7 7 5 6 7 9 6 6 7 11 8 8 8 8 9 9 9 9 8 9 8
6 6 5 5 8 9 9 6 7 9 7 7 5 4 4 5 12 6 8 5 4 6 7 9 6 5 6 6 7 6 6 7 7 8 7 8 8 8 8 8 8 8 7 8
6 7 7 7 6 7 7 7 7 8 8 4 4 9 10 9 6 3 1 4 4 5 4 4 4 4 5 5 7 6 6 7 7 7 7 7 7 8 8 8 8 8 7 7
6 7 7 8 7 6 8 7 9 9 7 8 7 5 5 3 3 3 3 6 5 2 3 3 4 4 4 3 5 5 6 7 7 6 6 7 7 8 8 9 8 7 7 7
7 7 8 9 8 6 6 7 8 9 9 7 7 8 7 4 3 2 3 4 3 3 3 3 2 3 2 3 2 5 6 6 6 6 6 7 6 7 7 8 7 7 7 7
6 7 7 7 7 7 8 8 7 8 7 7 6 5 6 4 3 3 2 3 2 4 2 2 2 3 3 4 2 3 5 5 5 4 5 6 6 6 7 6 7 6 6 6
5 5 5 6 6 5 5 7 7 7 6 6 6 6 4 4 4 4 3 3 3 3 2 2 3 4 3 2 1 2 3 4 4 4 5 5 5 5 6 5 5 5 5 5
4 4 4 5 5 5 8 9 7 6 5 4 5 5 5 3 1 2 4 5 5 4 3 4 5 5 3 1 1 1 1 1 1 2 3 3 3 4 4 4 4 4 4 5
4 5 4 6 7 6 6 7 6 6 6 5 6 6 6 3 2 4 3 3 6 5 5 9 10 9 5 5 5 5 5 5 5 4 4 4 3 3 3 4 4 5 5 4
7 6 6 5 4 5 5 5 5 5 5 6 4 6 5 4 4 3 4 5 6 7 7 7 8 7 7 8 8 8 7 7 7 7 6 5 5 5 5 6 6 5 5 5
4 6 6 5 6 6 5 4 4 6 6 5 4 6 5 5 5 5 5 6 6 7 7 8 8 9 8 8 8 9 8 8 10 7 7 6 5 5 6 5 5 5 5 5
Wind_Direction
269 255 240 246 191 187 199 203 219 339 231 267 212 229 245 257 271 271 265 231 221 200 183 205 189 168 173 183 28 352 352 6 12 14 10 351 2 0 12 18 16 31 54 55
272 290 237 259 237 205 219 227 268 278 285 253 266 219 232 234 232 242 251 242 210 204 193 196 204 174 164 176 113 54 360 358 16 18 14 14 18 11 21 19 26 46 42 54
263 334 286 264 224 198 187 208 206 216 232 238 244 212 221 216 214 227 239 224 209 186 192 186 187 177 168 151 135 105 15 53 5 9 23 31 23 39 34 21 24 31 47 50
283 291 245 245 145 191 211 227 212 248 237 233 241 234 249 230 219 227 227 229 226 188 168 174 166 165 153 153 146 134 116 355 339 339 32 8 23 58 50 31 39 40 47 55
238 226 309 259 195 172 186 266 209 220 228 215 225 302 266 230 225 236 222 226 215 187 169 157 167 170 164 168 158 156 163 169 166 232 325 345 82 85 68 76 59 56 46 60
152 234 231 259 166 191 206 279 193 202 209 185 151 233 242 172 181 176 189 187 189 168 156 162 172 172 174 175 182 188 173 168 156 146 121 26 8 17 48 81 93 91 78 62
199 252 283 251 145 141 188 259 136 192 182 163 188 218 354 138 156 141 152 162 165 170 181 183 166 171 190 183 207 189 167 162 161 158 151 146 121 18 315 158 134 122 120 97
142 207 262 135 103 194 255 355 192 185 183 187 192 183 196 181 167 169 163 165 178 177 187 179 170 177 194 207 191 164 172 178 173 163 165 160 152 147 143 177 165 128 156 151
188 204 110 197 259 219 13 314 247 195 194 192 188 202 193 203 193 198 199 191 176 187 171 190 180 196 200 213 173 162 167 176 189 192 184 175 176 179 198 190 190 224 226 236
127 237 231 214 252 258 234 225 227 244 191 184 197 200 205 206 203 200 198 210 183 182 199 206 201 203 218 171 173 168 181 182 180 185 195 212 202 204 198 190 206 205 229 261
267 282 291 238 226 237 235 226 235 217 206 207 199 213 212 211 218 208 198 201 196 215 209 216 189 210 213 189 165 191 195 190 193 199 196 188 211 202 208 225 216 191 192 200
209 217 199 233 172 205 219 223 224 210 218 217 194 213 188 217 208 196 206 186 210 236 245 224 206 211 188 180 181 191 206 205 209 200 196 202 209 221 226 235 212 221 225 210
222 207 210 220 273 194 223 235 225 207 220 200 211 202 185 205 203 225 221 206 211 224 232 213 214 230 178 180 185 198 213 205 202 206 210 201 203 215 222 210 229 230 223 225
232 121 300 197 249 214 215 258 263 232 229 220 197 165 176 206 181 224 238 223 210 203 225 215 208 235 183 182 190 206 211 215 208 203 201 201 201 205 199 196 206 215 230 223
229 211 237 360 343 264 121 160 233 244 233 224 195 192 187 208 223 224 232 192 214 222 237 211 217 242 176 182 199 205 205 213 208 215 213 212 202 193 196 203 212 211 196 227
312 274 219 228 263 300 211 236 254 263 226 235 210 212 219 220 220 197 222 193 193 225 221 222 230 234 177 182 203 210 210 216 207 207 211 213 215 211 197 207 212 217 215 219
319 320 12 351 9 343 254 231 228 236 179 216 239 47 175 226 203 232 242 228 229 243 224 219 234 191 204 189 194 206 205 202 205 212 208 204 214 213 208 203 212 214 222 210
335 329 332 311 308 317 313 286 250 259 241 236 187 210 235 209 242 216 221 207 229 260 245 252 251 211 208 198 196 202 201 199 195 210 210 209 215 227 218 212 211 224 227 221
355 344 339 329 327 301 299 332 345 323 312 302 229 230 231 227 232 235 158 217 226 258 281 303 296 251 237 207 196 205 214 209 202 210 212 216 214 216 221 220 218 216 220 221
10 356 340 336 345 353 337 337 327 321 344 337 305 265 255 236 253 252 185 235 232 268 359 324 305 291 290 257 213 213 215 217 213 206 215 216 223 219 224 224 217 221 219 226
2 355 360 359 349 356 8 349 339 343 337 342 331 324 326 342 343 335 241 247 125 36 323 291 314 302 302 314 222 212 213 211 213 212 220 220 221 233 231 232 226 221 225 228
349 348 350 352 353 344 352 352 359 346 344 355 358 352 342 345 333 299 339 298 352 337 309 301 309 321 300 291 249 223 217 215 216 216 219 229 232 241 240 237 238 228 230 234
347 349 341 351 356 344 330 357 353 358 352 358 356 2 9 344 334 319 273 360 312 320 314 323 323 306 313 264 252 242 222 209 212 209 220 221 223 234 239 233 237 240 228 225
341 354 351 338 335 19 17 351 345 358 359 9 11 360 353 2 102 29 329 322 325 343 5 357 345 345 333 306 199 180 207 210 207 221 219 220 230 237 241 246 249 252 249 243
336 341 2 15 17 10 341 341 334 5 2 19 24 9 355 350 338 353 349 5 10 19 36 25 30 24 29 30 39 49 49 41 30 37 36 33 21 19 18 18 21 11 345 325
357 9 354 3 359 349 344 355 7 1 1 7 15 13 4 1 5 13 42 43 46 43 42 40 35 42 44 41 43 41 36 32 33 34 35 33 31 32 27 25 26 23 13 5
354 15 3 359 5 349 332 334 17 16 10 25 5 12 10 17 31 32 40 55 62 56 47 41 42 48 53 47 48 49 44 41 34 30 29 24 25 34 37 37 35 29 21 22